Los Alamitos, CA

4:56 AM PDT on June 24, 2017 (GMT -0700)
Los Alamitos Army Air Field

Weather History for KSLI - November, 2013

Change the Weather History Date:

Friday, November 29, 2013

  Actual Average Record
Temperature  
Mean Temperature 58 °F -  
Max Temperature 64 °F 67 °F 80 °F (2003)
Min Temperature 52 °F 50 °F 35 °F (2010)
Degree Days  
Heating Degree Days 6    
Growing Degree Days 8 (Base 50)    
Moisture  
Dew Point 55 °F    
Average Humidity 94    
Maximum Humidity 100    
Minimum Humidity 57    
Precipitation  
Precipitation 0.28 in - - ()
Sea Level Pressure  
Sea Level Pressure 30.13 in    
Wind  
Wind Speed 4 mph (NNE)    
Max Wind Speed 9 mph    
Max Gust Speed -    
Visibility 8 miles    
Events Rain    
Averages and records for this station are not official NWS values.
T = Trace of Precipitation, MM = Missing Value Source: NWS Daily Summary

Daily Weather History Graph

Daily Weather History Graph

Search for Another Location

Airport or City:

Trip Planner

Search our weather history database for the weather conditions in past years. The results will help you decide how hot, cold, wet, or windy it might be!

Date:

Astronomy

Nov. 29, 2013 Rise Set
Actual Time 6:37 AM PST 4:43 PM PST
Civil Twilight 6:10 AM PST 5:10 PM PST
Nautical Twilight 5:39 AM PST 5:41 PM PST
Astronomical Twilight 5:09 AM PST 6:11 PM PST
Moon 2:57 AM PST (11/29) 2:23 PM PST (11/29)
Length of Visible Light 11h 00m
Length of Day
10h 06m
Waning Crescent, 13% of the Moon is Illuminated
Nov 29
Waning Crescent
Dec 2
New
Dec 9
First Quarter
Dec 17
Full
Dec 25
Last Quarter

Hourly Weather History & Observations

Time (PST) Temp. Dew Point Humidity Pressure Visibility Wind Dir Wind Speed Gust Speed Precip Events Conditions
12:58 AM 55.6 °F 55.6 °F 100% 30.07 in 10.0 mi NE 3.5 mph - N/A   Mostly Cloudy
1:58 AM 56.1 °F 55.9 °F 99% 30.08 in 10.0 mi East 3.5 mph - N/A   Overcast
2:28 AM 57.2 °F 55.4 °F 94% 30.07 in 10.0 mi ENE 2.3 mph - N/A Rain Light Rain
2:44 AM 55.4 °F 55.4 °F 100% 30.08 in 10.0 mi NE 2.3 mph - N/A   Mostly Cloudy
2:49 AM 57.2 °F 53.6 °F 88% 30.08 in 10.0 mi East 2.3 mph - N/A Rain Light Rain
2:58 AM 56.5 °F 54.1 °F 92% 30.08 in 10.0 mi NE 4.6 mph - 0.00 in Rain Light Rain
3:12 AM 55.4 °F 53.6 °F 94% 30.07 in 10.0 mi North 6.9 mph - N/A   Overcast
3:58 AM 56.1 °F 55.4 °F 97% 30.08 in 10.0 mi ENE 4.6 mph - 0.00 in   Overcast
4:58 AM 55.6 °F 53.6 °F 93% 30.07 in 10.0 mi NE 5.8 mph - N/A   Mostly Cloudy
5:58 AM 54.1 °F 54.1 °F 100% 30.10 in 10.0 mi SW 2.3 mph - N/A   Overcast
6:49 AM 53.6 °F 53.6 °F 100% 30.11 in 7.0 mi Calm Calm - N/A Rain Light Rain
6:58 AM 54.7 °F 54.7 °F 100% 30.12 in 7.0 mi NNE 2.3 mph - 0.00 in Rain Rain
7:26 AM 55.4 °F 55.4 °F 100% 30.11 in 7.0 mi NNW 4.6 mph - N/A   Overcast
7:42 AM 55.4 °F 55.4 °F 100% 30.12 in 7.0 mi West 3.5 mph - N/A Rain Light Rain
7:58 AM 55.0 °F 55.0 °F 100% 30.14 in 6.0 mi West 5.8 mph - 0.04 in Rain Rain
8:31 AM 55.4 °F 55.4 °F 100% 30.17 in 2.5 mi SSE 2.3 mph - N/A Rain Rain
8:58 AM 55.0 °F 55.0 °F 100% 30.18 in 2.0 mi Calm Calm - 0.13 in Rain Rain
9:04 AM 55.4 °F 55.4 °F 100% 30.17 in 3.0 mi NE 3.5 mph - N/A Rain Rain
9:08 AM 55.4 °F 55.4 °F 100% 30.17 in 2.5 mi NNE 5.8 mph - N/A Rain Rain
9:17 AM 55.4 °F 55.4 °F 100% 30.17 in 3.0 mi NNE 4.6 mph - N/A Rain Rain
9:58 AM 56.3 °F 56.3 °F 100% 30.17 in 6.0 mi NNE 9.2 mph - 0.10 in Rain Light Rain
10:16 AM 57.2 °F 57.2 °F 100% 30.16 in 7.0 mi NNE 6.9 mph - N/A   Overcast
10:44 AM 59.0 °F 59.0 °F 100% 30.18 in 7.0 mi Calm Calm - N/A Rain Light Rain
10:58 AM 58.3 °F 58.3 °F 100% 30.18 in 4.0 mi Calm Calm - 0.00 in Rain Rain
11:12 AM 59.0 °F 59.0 °F 100% 30.17 in 7.0 mi NW 3.5 mph - N/A   Overcast
11:58 AM 60.1 °F 57.7 °F 92% 30.15 in 10.0 mi North 4.6 mph - 0.01 in   Overcast
12:58 PM 62.2 °F 52.3 °F 70% 30.13 in 10.0 mi East 5.8 mph - N/A   Overcast
1:58 PM 63.9 °F 48.2 °F 57% 30.12 in 10.0 mi NNE 4.6 mph - N/A   Overcast
2:58 PM 64.0 °F 50.7 °F 62% 30.11 in 10.0 mi WNW 5.8 mph - N/A   Overcast
3:58 PM 63.5 °F 54.1 °F 72% 30.11 in 10.0 mi WNW 2.3 mph - N/A   Overcast
4:58 PM 62.4 °F 57.7 °F 85% 30.12 in 10.0 mi West 4.6 mph - N/A   Overcast
5:58 PM 61.3 °F 57.4 °F 87% 30.13 in 10.0 mi NW 5.8 mph - N/A   Overcast
6:58 PM 58.5 °F 58.5 °F 100% 30.15 in 10.0 mi NW 2.3 mph - N/A   Overcast
7:58 PM 56.8 °F 56.8 °F 100% 30.17 in 10.0 mi WSW 3.5 mph - N/A   Partly Cloudy
8:58 PM 55.6 °F 55.6 °F 100% 30.17 in 10.0 mi NNW 2.3 mph - N/A   Clear
9:58 PM 53.8 °F 53.8 °F 100% 30.17 in 10.0 mi North 3.5 mph - N/A   Clear
10:58 PM 53.6 °F 53.6 °F 100% 30.17 in 10.0 mi East 2.3 mph - N/A   Clear
11:58 PM 52.2 °F 52.2 °F 100% 30.17 in 10.0 mi East 2.3 mph - N/A   Clear